Notices

Due to recent upgrades, we are currently experiencing delays in populating our data report tables. We thank you for your patience during this time of difficulty as we are working in rectifying this issue as soon as possible. If you have any questions or concerns, please contact us.

Hourly Data Report for May 18, 2022

TORONTO INTL A
ONTARIO
Current Station Operator: NAVCAN

43°40'36.000" N
79°37'50.000" W
173.40 m
6158731
71624
YYZ

Download Data

Hourly Data (May 2022)
Hourly Data Report for May 18, 2022
TIME
LST
Temp Definition
°C
Dew Point Definition
°C
Rel Hum Definition
%
Precip. Amount Definition
mm

Wind Dir Definition
10's deg

Wind Spd Definition
km/h
Visibility Definition
km
Stn Press Definition
kPa
Hmdx Definition


Wind Chill Definition


Weather Definition


00:00 7.6 3.5 75   29 12 24.1 99.59     LegendNANA
01:00 6.6 3.3 79   29 9 24.1 99.62     Clear
02:00 6.5 2.9 77   28 8 24.1 99.62     LegendNANA
03:00 6.9 2.9 76   34 11 24.1 99.59     LegendNANA
04:00 6.2 2.8 79   29 9 24.1 99.62     Mainly Clear
05:00 6.2 2.7 78   34 9 24.1 99.64     LegendNANA
06:00 8.0 3.4 73   35 6 24.1 99.68     LegendNANA
07:00 9.5 4.0 69   36 7 24.1 99.75     Mostly Cloudy
08:00 12.2 2.5 51   8 6 24.1 99.74     LegendNANA
09:00 13.1 1.5 45   10 10 24.1 99.76     LegendNANA
10:00 13.5 2.0 45   15 12 24.1 99.70     Cloudy
11:00 13.3 1.5 44   17 14 24.1 99.67     LegendNANA
12:00 13.4 1.6 44   13 10 24.1 99.61     LegendNANA
13:00 13.7 3.0 48   15 12 24.1 99.51     Mostly Cloudy
14:00 12.5 2.6 51   15 12 24.1 99.45     LegendNANA
15:00 11.8 2.3 52   15 14 24.1 99.37     Rain
16:00 12.1 3.7 56   16 15 24.1 99.22     Mostly Cloudy
17:00 11.3 3.3 57   17 16 24.1 99.09     LegendNANA
18:00 10.7 3.2 60   13 14 24.1 99.03     LegendNANA
19:00 10.7 4.1 63   15 8 24.1 99.01     Mostly Cloudy
20:00 10.8 3.8 62   10 8 24.1 98.97     LegendNANA
21:00 10.8 3.9 62   15 8 24.1 99.00     LegendNANA
22:00 10.3 3.8 64   15 8 24.1 98.97     Cloudy
23:00 10.6 4.1 64   13 5 24.1 98.86     LegendNANA

Notes on Data Quality.

Legend

  • E = Estimated
  • M = Missing
  • NA = Not Available*
  • [empty] = Indicates an unobserved value
Date modified: